Year,Month,Day,Hour,Minute,Value (Times are PST for windspeed in km/hr)
2021,01,13,00,00,35.40
2021,01,13,00,01,34.80
2021,01,13,00,02,26.30
2021,01,13,00,03,25.20
2021,01,13,00,04,29.80
2021,01,13,00,05,28.50
2021,01,13,00,06,30.10
2021,01,13,00,07,48.00
2021,01,13,00,08,29.40
2021,01,13,00,09,26.90
2021,01,13,00,10,19.10
2021,01,13,00,11,37.70
2021,01,13,00,12,38.80
2021,01,13,00,13,34.10
2021,01,13,00,14,28.10
2021,01,13,00,15,30.20
2021,01,13,00,16,32.20
2021,01,13,00,17,32.10
2021,01,13,00,18,29.20
2021,01,13,00,19,34.30
2021,01,13,00,20,29.50
2021,01,13,00,21,33.50
2021,01,13,00,22,24.50
2021,01,13,00,23,25.40
2021,01,13,00,24,22.30
2021,01,13,00,25,27.10
2021,01,13,00,26,24.10
2021,01,13,00,27,31.80
2021,01,13,00,28,36.60
2021,01,13,00,29,26.00
2021,01,13,00,30,23.50
2021,01,13,00,31,27.40
2021,01,13,00,32,21.30
2021,01,13,00,33,28.90
2021,01,13,00,34,30.80
2021,01,13,00,35,35.50
2021,01,13,00,36,25.60
2021,01,13,00,37,36.30
2021,01,13,00,38,24.10
2021,01,13,00,39,31.50
2021,01,13,00,40,26.00
2021,01,13,00,41,30.60
2021,01,13,00,42,34.20
2021,01,13,00,43,29.00
2021,01,13,00,44,28.90
2021,01,13,00,45,29.30
2021,01,13,00,46,24.90
2021,01,13,00,47,30.30
2021,01,13,00,48,26.30
2021,01,13,00,49,31.70
2021,01,13,00,50,28.50
2021,01,13,00,51,27.70
2021,01,13,00,52,20.80
2021,01,13,00,53,35.70
2021,01,13,00,54,31.40
2021,01,13,00,55,31.80
2021,01,13,00,56,22.70
2021,01,13,00,57,40.30
2021,01,13,00,58,35.20
2021,01,13,00,59,29.90
2021,01,13,01,00,30.30
2021,01,13,01,01,33.40
2021,01,13,01,02,21.10
2021,01,13,01,03,24.80
2021,01,13,01,04,36.00
2021,01,13,01,05,34.10
2021,01,13,01,06,34.30
2021,01,13,01,07,29.20
2021,01,13,01,08,34.40
2021,01,13,01,09,27.90
2021,01,13,01,10,36.90
2021,01,13,01,11,28.60
2021,01,13,01,12,21.60
2021,01,13,01,13,30.50
2021,01,13,01,14,27.10
2021,01,13,01,15,32.10
2021,01,13,01,16,28.80
2021,01,13,01,17,27.90
2021,01,13,01,18,22.40
2021,01,13,01,19,22.50
2021,01,13,01,20,30.80
2021,01,13,01,21,28.70
2021,01,13,01,22,31.40
2021,01,13,01,23,31.20
2021,01,13,01,24,34.30
2021,01,13,01,25,22.00
2021,01,13,01,26,22.20
2021,01,13,01,27,28.20
2021,01,13,01,28,27.10
2021,01,13,01,29,25.10
2021,01,13,01,30,29.70
2021,01,13,01,31,24.80
2021,01,13,01,32,21.60
2021,01,13,01,33,25.70
2021,01,13,01,34,26.40
2021,01,13,01,35,26.20
2021,01,13,01,36,30.90
2021,01,13,01,37,20.40
2021,01,13,01,38,28.80
2021,01,13,01,39,15.20
2021,01,13,01,40,11.40
2021,01,13,01,41,28.30
2021,01,13,01,42,12.50
2021,01,13,01,43,20.30
2021,01,13,01,44,18.30
2021,01,13,01,45,15.90
2021,01,13,01,46,25.70
2021,01,13,01,47,21.60
2021,01,13,01,48,13.30
2021,01,13,01,49,22.60
2021,01,13,01,50,16.20
2021,01,13,01,51,11.90
2021,01,13,01,52,23.80
2021,01,13,01,53,16.50
2021,01,13,01,54,22.80
2021,01,13,01,55,24.10
2021,01,13,01,56,18.80
2021,01,13,01,57,21.50
2021,01,13,01,58,22.50
2021,01,13,01,59,21.80
2021,01,13,02,00,24.10
2021,01,13,02,01,21.20
2021,01,13,02,02,16.60
2021,01,13,02,03,16.50
2021,01,13,02,04,24.60
2021,01,13,02,05,26.80
2021,01,13,02,06,31.70
2021,01,13,02,07,21.80
2021,01,13,02,08,23.60
2021,01,13,02,09,23.90
2021,01,13,02,10,29.90
2021,01,13,02,11,23.80
2021,01,13,02,12,23.00
2021,01,13,02,13,15.80
2021,01,13,02,14,25.20
2021,01,13,02,15,30.00
2021,01,13,02,16,21.80
2021,01,13,02,17,29.30
2021,01,13,02,18,26.00
2021,01,13,02,19,36.80
2021,01,13,02,20,27.80
2021,01,13,02,21,28.20
2021,01,13,02,22,37.90
2021,01,13,02,23,25.80
2021,01,13,02,24,25.40
2021,01,13,02,25,27.00
2021,01,13,02,26,29.10
2021,01,13,02,27,27.00
2021,01,13,02,28,17.50
2021,01,13,02,29,23.50
2021,01,13,02,30,23.20
2021,01,13,02,31,31.90
2021,01,13,02,32,23.50
2021,01,13,02,33,21.30
2021,01,13,02,34,18.00
2021,01,13,02,35,14.40
2021,01,13,02,36,18.20
2021,01,13,02,37,21.50
2021,01,13,02,38,29.00
2021,01,13,02,39,17.10
2021,01,13,02,40,20.80
2021,01,13,02,41,23.40
2021,01,13,02,42,26.30
2021,01,13,02,43,29.40
2021,01,13,02,44,30.20
2021,01,13,02,45,25.20
2021,01,13,02,46,29.90
2021,01,13,02,47,17.50
2021,01,13,02,48,22.80
2021,01,13,02,49,22.50
2021,01,13,02,50,26.90
2021,01,13,02,51,22.40
2021,01,13,02,52,24.40
2021,01,13,02,53,23.30
2021,01,13,02,54,23.20
2021,01,13,02,55,21.70
2021,01,13,02,56,23.20
2021,01,13,02,57,16.80
2021,01,13,02,58,12.30
2021,01,13,02,59,13.10
2021,01,13,03,00,15.70
2021,01,13,03,01,29.90
2021,01,13,03,02,23.50
2021,01,13,03,03,21.20
2021,01,13,03,04,21.60
2021,01,13,03,05,33.80
2021,01,13,03,06,14.20
2021,01,13,03,07,30.70
2021,01,13,03,08,23.30
2021,01,13,03,09,22.60
2021,01,13,03,10,27.40
2021,01,13,03,11,22.90
2021,01,13,03,12,31.60
2021,01,13,03,13,28.80
2021,01,13,03,14,25.00
2021,01,13,03,15,29.10
2021,01,13,03,16,33.40
2021,01,13,03,17,28.30
2021,01,13,03,18,36.80
2021,01,13,03,19,37.00
2021,01,13,03,20,17.10
2021,01,13,03,21,27.90
2021,01,13,03,22,27.40
2021,01,13,03,23,28.80
2021,01,13,03,24,21.30
2021,01,13,03,25,31.90
2021,01,13,03,26,15.20
2021,01,13,03,27,25.30
2021,01,13,03,28,22.60
2021,01,13,03,29,18.80
2021,01,13,03,30,26.80
2021,01,13,03,31,23.60
2021,01,13,03,32,18.50
2021,01,13,03,33,26.30
2021,01,13,03,34,34.40
2021,01,13,03,35,22.10
2021,01,13,03,36,15.70
2021,01,13,03,37,29.40
2021,01,13,03,38,25.70
2021,01,13,03,39,30.30
2021,01,13,03,40,19.10
2021,01,13,03,41,15.60
2021,01,13,03,42,21.90
2021,01,13,03,43,30.30
2021,01,13,03,44,26.10
2021,01,13,03,45,33.30
2021,01,13,03,46,22.60
2021,01,13,03,47,19.90
2021,01,13,03,48,24.50
2021,01,13,03,49,20.80
2021,01,13,03,50,33.30
2021,01,13,03,51,24.30
2021,01,13,03,52,25.40
2021,01,13,03,53,44.70
2021,01,13,03,54,30.00
2021,01,13,03,55,21.60
2021,01,13,03,56,25.40
2021,01,13,03,57,36.20
2021,01,13,03,58,21.10
2021,01,13,03,59,14.80
2021,01,13,04,00,24.70
2021,01,13,04,01,37.70
2021,01,13,04,02,35.80
2021,01,13,04,03,34.00
2021,01,13,04,04,25.40
2021,01,13,04,05,18.80
2021,01,13,04,06,21.70
2021,01,13,04,07,29.40
2021,01,13,04,08,31.80
2021,01,13,04,09,18.80
2021,01,13,04,10,23.80
2021,01,13,04,11,34.40
2021,01,13,04,12,21.80
2021,01,13,04,13,11.60
2021,01,13,04,14,19.20
2021,01,13,04,15,23.00
2021,01,13,04,16,18.10
2021,01,13,04,17,16.60
2021,01,13,04,18,15.80
2021,01,13,04,19,25.30
2021,01,13,04,20,19.40
2021,01,13,04,21,15.20
2021,01,13,04,22,13.20
2021,01,13,04,23,12.30
2021,01,13,04,24,21.60
2021,01,13,04,25,27.80
2021,01,13,04,26,32.40
2021,01,13,04,27,34.00
2021,01,13,04,28,28.70
2021,01,13,04,29,26.40
2021,01,13,04,30,25.10
2021,01,13,04,31,29.60
2021,01,13,04,32,25.70
2021,01,13,04,33,21.80
2021,01,13,04,34,18.30
2021,01,13,04,35,21.60
2021,01,13,04,36,21.40
2021,01,13,04,37,10.70
2021,01,13,04,38,17.10
2021,01,13,04,39,21.30
2021,01,13,04,40,14.50
2021,01,13,04,41,14.00
2021,01,13,04,42,26.90
2021,01,13,04,43,15.40
2021,01,13,04,44,17.80
2021,01,13,04,45,15.30
2021,01,13,04,46,21.90
2021,01,13,04,47,20.80
2021,01,13,04,48,19.70
2021,01,13,04,49,13.80
2021,01,13,04,50,35.50
2021,01,13,04,51,19.10
2021,01,13,04,52,18.30
2021,01,13,04,53,19.60
2021,01,13,04,54,22.90
2021,01,13,04,55,15.20
2021,01,13,04,56,17.90
2021,01,13,04,57,27.50
2021,01,13,04,58,18.00
2021,01,13,04,59,18.20
2021,01,13,05,00,31.30
2021,01,13,05,01,30.70
2021,01,13,05,02,26.20
2021,01,13,05,03,21.20
2021,01,13,05,04,14.90
2021,01,13,05,05,22.00
2021,01,13,05,06,21.10
2021,01,13,05,07,30.10
2021,01,13,05,08,19.10
2021,01,13,05,09,27.40
2021,01,13,05,10,29.00
2021,01,13,05,11,27.70
2021,01,13,05,12,30.60
2021,01,13,05,13,30.30
2021,01,13,05,14,24.40
2021,01,13,05,15,20.40
2021,01,13,05,16,30.70
2021,01,13,05,17,31.50
2021,01,13,05,18,32.10
2021,01,13,05,19,29.80
2021,01,13,05,20,28.60
2021,01,13,05,21,21.30
2021,01,13,05,22,24.30
2021,01,13,05,23,23.60
2021,01,13,05,24,33.60
2021,01,13,05,25,17.30
2021,01,13,05,26,21.70
2021,01,13,05,27,15.20
2021,01,13,05,28,24.30
2021,01,13,05,29,20.80
2021,01,13,05,30,19.60
2021,01,13,05,31,21.00
2021,01,13,05,32,19.90
2021,01,13,05,33,17.80
2021,01,13,05,34,16.40
2021,01,13,05,35,18.60
2021,01,13,05,36,20.70
2021,01,13,05,37,23.50
2021,01,13,05,38,28.90
2021,01,13,05,39,13.70
2021,01,13,05,40,22.80
2021,01,13,05,41,15.10
2021,01,13,05,42,16.80
2021,01,13,05,43,22.60
2021,01,13,05,44,17.30
2021,01,13,05,45,18.90
2021,01,13,05,46,24.40
2021,01,13,05,47,27.90
2021,01,13,05,48,16.10
2021,01,13,05,49,21.00
2021,01,13,05,50,19.10
2021,01,13,05,51,19.00
2021,01,13,05,52,8.90
2021,01,13,05,53,12.50
2021,01,13,05,54,15.50
2021,01,13,05,55,18.80
2021,01,13,05,56,17.90
2021,01,13,05,57,16.50
2021,01,13,05,58,12.20
2021,01,13,05,59,16.60
2021,01,13,06,00,19.80
2021,01,13,06,01,18.40
2021,01,13,06,02,11.10
2021,01,13,06,03,19.20
2021,01,13,06,04,20.40
2021,01,13,06,05,27.80
2021,01,13,06,06,18.00
2021,01,13,06,07,11.70
2021,01,13,06,08,11.00
2021,01,13,06,09,13.90
2021,01,13,06,10,17.70
2021,01,13,06,11,13.60
2021,01,13,06,12,13.90
2021,01,13,06,13,13.60
2021,01,13,06,14,13.50
2021,01,13,06,15,10.60
2021,01,13,06,16,13.90
2021,01,13,06,17,10.10
2021,01,13,06,18,15.80
2021,01,13,06,19,17.90
2021,01,13,06,20,12.80
2021,01,13,06,21,11.70
2021,01,13,06,22,17.60
2021,01,13,06,23,17.60
2021,01,13,06,24,19.20
2021,01,13,06,25,11.90
2021,01,13,06,26,9.30
2021,01,13,06,27,13.80
2021,01,13,06,28,15.00
2021,01,13,06,29,7.90
2021,01,13,06,30,4.00
2021,01,13,06,31,6.40
2021,01,13,06,32,8.80
2021,01,13,06,33,8.90
2021,01,13,06,34,7.90
2021,01,13,06,35,6.70
2021,01,13,06,36,9.30
2021,01,13,06,37,10.90
2021,01,13,06,38,6.50
2021,01,13,06,39,12.70
2021,01,13,06,40,8.40
2021,01,13,06,41,5.90
2021,01,13,06,42,8.60
2021,01,13,06,43,3.40
2021,01,13,06,44,6.40
2021,01,13,06,45,4.80
2021,01,13,06,46,7.00
2021,01,13,06,47,9.90
2021,01,13,06,48,11.80
2021,01,13,06,49,12.40
2021,01,13,06,50,10.90
2021,01,13,06,51,7.80
2021,01,13,06,52,8.50
2021,01,13,06,53,7.50
2021,01,13,06,54,7.30
2021,01,13,06,55,13.50
2021,01,13,06,56,8.10
2021,01,13,06,57,11.60
2021,01,13,06,58,11.40
2021,01,13,06,59,9.10
2021,01,13,07,00,13.00
2021,01,13,07,01,15.60
2021,01,13,07,02,16.80
2021,01,13,07,03,12.40
2021,01,13,07,04,13.40
2021,01,13,07,05,13.00
2021,01,13,07,06,17.60
2021,01,13,07,07,13.00
2021,01,13,07,08,13.00
2021,01,13,07,09,14.40
2021,01,13,07,10,18.80
2021,01,13,07,11,9.30
2021,01,13,07,12,14.80
2021,01,13,07,13,14.20
2021,01,13,07,14,15.40
2021,01,13,07,15,19.70
2021,01,13,07,16,19.10
2021,01,13,07,17,14.10
2021,01,13,07,18,6.10
2021,01,13,07,19,12.90
2021,01,13,07,20,14.40
2021,01,13,07,21,8.90
2021,01,13,07,22,8.30
2021,01,13,07,23,10.90
2021,01,13,07,24,10.10
2021,01,13,07,25,12.00
2021,01,13,07,26,14.30
2021,01,13,07,27,10.80
2021,01,13,07,28,8.90
2021,01,13,07,29,11.60
2021,01,13,07,30,10.10
2021,01,13,07,31,6.60
2021,01,13,07,32,11.10
2021,01,13,07,33,8.90
2021,01,13,07,34,17.10
2021,01,13,07,35,8.00
2021,01,13,07,36,14.20
2021,01,13,07,37,10.20
2021,01,13,07,38,13.70
2021,01,13,07,39,13.80
2021,01,13,07,40,16.50
2021,01,13,07,41,19.10
2021,01,13,07,42,23.10
2021,01,13,07,43,18.10
2021,01,13,07,44,20.60
2021,01,13,07,45,8.90
2021,01,13,07,46,11.40
2021,01,13,07,47,15.40
2021,01,13,07,48,17.00
2021,01,13,07,49,13.80
2021,01,13,07,50,16.10
2021,01,13,07,51,20.90
2021,01,13,07,52,13.10
2021,01,13,07,53,13.50
2021,01,13,07,54,11.20
2021,01,13,07,55,12.70
2021,01,13,07,56,9.10
2021,01,13,07,57,13.10
2021,01,13,07,58,16.80
2021,01,13,07,59,9.20
2021,01,13,08,00,9.30
2021,01,13,08,01,12.60
2021,01,13,08,02,16.70
2021,01,13,08,03,8.20
2021,01,13,08,04,8.00
2021,01,13,08,05,10.90
2021,01,13,08,06,5.50
2021,01,13,08,07,5.80
2021,01,13,08,08,10.80
2021,01,13,08,09,8.90
2021,01,13,08,10,4.40
2021,01,13,08,11,6.80
2021,01,13,08,12,8.10
2021,01,13,08,13,5.20
2021,01,13,08,14,8.40
2021,01,13,08,15,8.60
2021,01,13,08,16,4.50
2021,01,13,08,17,6.20
2021,01,13,08,18,6.50
2021,01,13,08,19,7.50
2021,01,13,08,20,8.90
2021,01,13,08,21,11.00
2021,01,13,08,22,8.10
2021,01,13,08,23,11.00
2021,01,13,08,24,5.90
2021,01,13,08,25,8.90
2021,01,13,08,26,11.60
2021,01,13,08,27,10.90
2021,01,13,08,28,14.20
2021,01,13,08,29,12.80
2021,01,13,08,30,13.50
2021,01,13,08,31,16.30
2021,01,13,08,32,20.50
2021,01,13,08,33,11.30
2021,01,13,08,34,13.60
2021,01,13,08,35,7.60
2021,01,13,08,36,14.50
2021,01,13,08,37,11.70
2021,01,13,08,38,12.40
2021,01,13,08,39,9.60
2021,01,13,08,40,4.10
2021,01,13,08,41,4.50
2021,01,13,08,42,5.00
2021,01,13,08,43,7.20
2021,01,13,08,44,4.40
2021,01,13,08,45,6.50
2021,01,13,08,46,4.90
2021,01,13,08,47,5.60
2021,01,13,08,48,1.40
2021,01,13,08,49,3.20
2021,01,13,08,50,0.80
2021,01,13,08,51,0.60
2021,01,13,08,52,3.80
2021,01,13,08,53,2.70
2021,01,13,08,54,5.30
2021,01,13,08,55,10.10
2021,01,13,08,56,11.50
2021,01,13,08,57,7.20
2021,01,13,08,58,3.50
2021,01,13,08,59,3.30
2021,01,13,09,00,1.90
2021,01,13,09,01,2.70
2021,01,13,09,02,2.70
2021,01,13,09,03,6.20
2021,01,13,09,04,2.80
2021,01,13,09,05,6.30
2021,01,13,09,06,6.90
2021,01,13,09,07,6.40
2021,01,13,09,08,6.60
2021,01,13,09,09,5.90
2021,01,13,09,10,7.90
2021,01,13,09,11,6.40
2021,01,13,09,12,5.80
2021,01,13,09,13,6.40
2021,01,13,09,14,6.30
2021,01,13,09,15,5.40
2021,01,13,09,16,1.90
2021,01,13,09,17,0.00
2021,01,13,09,18,0.00
2021,01,13,09,19,0.00
2021,01,13,09,20,0.60
2021,01,13,09,21,1.20
2021,01,13,09,22,1.20
2021,01,13,09,23,6.00
2021,01,13,09,24,9.70
2021,01,13,09,25,2.50
2021,01,13,09,26,1.20
2021,01,13,09,27,0.30
2021,01,13,09,28,2.70
2021,01,13,09,29,1.40
2021,01,13,09,30,1.20
2021,01,13,09,31,1.10
2021,01,13,09,32,4.60
2021,01,13,09,33,2.60
2021,01,13,09,34,2.00
2021,01,13,09,35,1.40
2021,01,13,09,36,2.60
2021,01,13,09,37,5.30
2021,01,13,09,38,4.40
2021,01,13,09,39,3.60
2021,01,13,09,40,8.20
2021,01,13,09,41,9.80
2021,01,13,09,42,8.90
2021,01,13,09,43,5.30
2021,01,13,09,44,0.40
2021,01,13,09,45,1.00
2021,01,13,09,46,0.30
2021,01,13,09,47,0.00
2021,01,13,09,48,0.00
2021,01,13,09,49,0.50
2021,01,13,09,50,2.90
2021,01,13,09,51,5.10
2021,01,13,09,52,7.20
2021,01,13,09,53,5.80
2021,01,13,09,54,3.90
2021,01,13,09,55,5.90
2021,01,13,09,56,3.10
2021,01,13,09,57,0.90
2021,01,13,09,58,4.10
2021,01,13,09,59,9.20
2021,01,13,10,00,12.60
2021,01,13,10,01,9.70
2021,01,13,10,02,7.50
2021,01,13,10,03,3.10
2021,01,13,10,04,9.10
2021,01,13,10,05,5.90
2021,01,13,10,06,17.60
2021,01,13,10,07,12.80
2021,01,13,10,08,6.30
2021,01,13,10,09,10.70
2021,01,13,10,10,8.00
2021,01,13,10,11,10.00
2021,01,13,10,12,17.40
2021,01,13,10,13,13.10
2021,01,13,10,14,5.50
2021,01,13,10,15,6.30
2021,01,13,10,16,4.90
2021,01,13,10,17,5.80
2021,01,13,10,18,14.50
2021,01,13,10,19,13.70
2021,01,13,10,20,11.30
2021,01,13,10,21,11.10
2021,01,13,10,22,10.20
2021,01,13,10,23,9.10
2021,01,13,10,24,9.20
2021,01,13,10,25,8.00
2021,01,13,10,26,8.90
2021,01,13,10,27,8.20
2021,01,13,10,28,7.50
2021,01,13,10,29,4.70
2021,01,13,10,30,9.80
2021,01,13,10,31,16.60
2021,01,13,10,32,15.70
2021,01,13,10,33,7.30
2021,01,13,10,34,9.60
2021,01,13,10,35,6.50
2021,01,13,10,36,9.00
2021,01,13,10,37,4.60
2021,01,13,10,38,4.20
2021,01,13,10,39,7.70
2021,01,13,10,40,7.10
2021,01,13,10,41,7.20
2021,01,13,10,42,6.60
2021,01,13,10,43,11.40
2021,01,13,10,44,16.50
2021,01,13,10,45,10.30
2021,01,13,10,46,7.20
2021,01,13,10,47,3.30
2021,01,13,10,48,5.00
2021,01,13,10,49,4.20
2021,01,13,10,50,6.90
2021,01,13,10,51,10.30
2021,01,13,10,52,9.90
2021,01,13,10,53,8.20
2021,01,13,10,54,9.20
2021,01,13,10,55,7.10
2021,01,13,10,56,5.50
2021,01,13,10,57,3.90
2021,01,13,10,58,5.90
2021,01,13,10,59,4.70
2021,01,13,11,00,2.10
2021,01,13,11,01,2.30
2021,01,13,11,02,3.00
2021,01,13,11,03,3.40
2021,01,13,11,04,4.60
2021,01,13,11,05,7.50
2021,01,13,11,06,12.60
2021,01,13,11,07,10.00
2021,01,13,11,08,6.70
2021,01,13,11,09,12.40
2021,01,13,11,10,12.90
2021,01,13,11,11,10.10
2021,01,13,11,12,9.10
2021,01,13,11,13,7.50
2021,01,13,11,14,7.20
2021,01,13,11,15,9.30
2021,01,13,11,16,10.70
2021,01,13,11,17,16.50
2021,01,13,11,18,9.60
2021,01,13,11,19,4.30
2021,01,13,11,20,11.80
2021,01,13,11,21,12.80
2021,01,13,11,22,5.50
2021,01,13,11,23,6.00
2021,01,13,11,24,8.80
2021,01,13,11,25,8.50
2021,01,13,11,26,5.20
2021,01,13,11,27,1.60
2021,01,13,11,28,5.40
2021,01,13,11,29,4.40
2021,01,13,11,30,3.70
2021,01,13,11,31,3.60
2021,01,13,11,32,7.70
2021,01,13,11,33,7.60
2021,01,13,11,34,5.60
2021,01,13,11,35,7.30
2021,01,13,11,36,11.10
2021,01,13,11,37,5.90
2021,01,13,11,38,5.80
2021,01,13,11,39,3.50
2021,01,13,11,40,5.40
2021,01,13,11,41,5.00
2021,01,13,11,42,9.90
2021,01,13,11,43,10.00
2021,01,13,11,44,14.10
2021,01,13,11,45,13.50
2021,01,13,11,46,15.40
2021,01,13,11,47,15.10
2021,01,13,11,48,11.60
2021,01,13,11,49,9.80
2021,01,13,11,50,9.50
2021,01,13,11,51,7.50
2021,01,13,11,52,9.40
2021,01,13,11,53,9.10
2021,01,13,11,54,5.00
2021,01,13,11,55,6.00
2021,01,13,11,56,7.80
2021,01,13,11,57,6.00
2021,01,13,11,58,3.90
2021,01,13,11,59,7.10
2021,01,13,12,00,8.70
2021,01,13,12,01,11.30
2021,01,13,12,02,10.10
2021,01,13,12,03,10.20
2021,01,13,12,04,7.80
2021,01,13,12,05,5.00
2021,01,13,12,06,5.60
2021,01,13,12,07,11.30
2021,01,13,12,08,7.60
2021,01,13,12,09,10.20
2021,01,13,12,10,6.10
2021,01,13,12,11,9.20
2021,01,13,12,12,8.00
2021,01,13,12,13,9.20
2021,01,13,12,14,7.00
2021,01,13,12,15,7.20
2021,01,13,12,16,9.20
2021,01,13,12,17,9.40
2021,01,13,12,18,7.20
2021,01,13,12,19,7.70
2021,01,13,12,20,8.60
2021,01,13,12,21,11.30
2021,01,13,12,22,8.30
2021,01,13,12,23,8.30
2021,01,13,12,24,7.90
2021,01,13,12,25,9.10
2021,01,13,12,26,14.10
2021,01,13,12,27,8.70
2021,01,13,12,28,8.50
2021,01,13,12,29,6.00
2021,01,13,12,30,6.60
2021,01,13,12,31,8.00
2021,01,13,12,32,11.90
2021,01,13,12,33,7.40
2021,01,13,12,34,6.00
2021,01,13,12,35,9.70
2021,01,13,12,36,7.40
2021,01,13,12,37,5.40
2021,01,13,12,38,8.40
2021,01,13,12,39,15.40
2021,01,13,12,40,14.90
2021,01,13,12,41,13.00
2021,01,13,12,42,10.40
2021,01,13,12,43,9.90
2021,01,13,12,44,11.90
2021,01,13,12,45,11.50
2021,01,13,12,46,9.00
2021,01,13,12,47,14.10
2021,01,13,12,48,12.10
2021,01,13,12,49,7.60
2021,01,13,12,50,10.30
2021,01,13,12,51,11.70
2021,01,13,12,52,11.30
2021,01,13,12,53,15.80
2021,01,13,12,54,14.80
2021,01,13,12,55,16.70
2021,01,13,12,56,13.50
2021,01,13,12,57,10.70
2021,01,13,12,58,10.90
2021,01,13,12,59,11.60
2021,01,13,13,00,7.90
2021,01,13,13,01,4.40
2021,01,13,13,02,3.10
2021,01,13,13,03,0.70
2021,01,13,13,04,4.10
2021,01,13,13,05,10.00
2021,01,13,13,06,11.80
2021,01,13,13,07,13.40
2021,01,13,13,08,7.10
2021,01,13,13,09,7.70
2021,01,13,13,10,7.20
2021,01,13,13,11,7.50
2021,01,13,13,12,10.40
2021,01,13,13,13,9.90
2021,01,13,13,14,4.20
2021,01,13,13,15,9.90
2021,01,13,13,16,9.60
2021,01,13,13,17,9.20
2021,01,13,13,18,2.70
2021,01,13,13,19,4.80
2021,01,13,13,20,8.70
2021,01,13,13,21,6.00
2021,01,13,13,22,4.40
2021,01,13,13,23,5.30
2021,01,13,13,24,5.80
2021,01,13,13,25,3.10
2021,01,13,13,26,1.90
2021,01,13,13,27,2.10
2021,01,13,13,28,7.20
2021,01,13,13,29,8.20
2021,01,13,13,30,11.30
2021,01,13,13,31,9.10
2021,01,13,13,32,7.20
2021,01,13,13,33,9.20
2021,01,13,13,34,5.40
2021,01,13,13,35,4.70
2021,01,13,13,36,11.50
2021,01,13,13,37,7.70
2021,01,13,13,38,2.60
2021,01,13,13,39,5.60
2021,01,13,13,40,9.80
2021,01,13,13,41,11.60
2021,01,13,13,42,6.10
2021,01,13,13,43,5.30
2021,01,13,13,44,10.90
2021,01,13,13,45,6.80
2021,01,13,13,46,4.90
2021,01,13,13,47,9.30
2021,01,13,13,48,5.80
2021,01,13,13,49,4.40
2021,01,13,13,50,6.70
2021,01,13,13,51,8.60
2021,01,13,13,52,7.50
2021,01,13,13,53,6.70
2021,01,13,13,54,4.60
2021,01,13,13,55,5.10
2021,01,13,13,56,10.30
2021,01,13,13,57,5.60
2021,01,13,13,58,7.40
2021,01,13,13,59,8.00
2021,01,13,14,00,6.90
2021,01,13,14,01,4.60
2021,01,13,14,02,6.50
2021,01,13,14,03,5.50
2021,01,13,14,04,6.90
2021,01,13,14,05,5.10
2021,01,13,14,06,7.50
2021,01,13,14,07,9.10
2021,01,13,14,08,12.70
2021,01,13,14,09,5.30
2021,01,13,14,10,7.20
2021,01,13,14,11,9.30
2021,01,13,14,12,11.60
2021,01,13,14,13,8.80
2021,01,13,14,14,4.50
2021,01,13,14,15,8.40
2021,01,13,14,16,19.80
2021,01,13,14,17,12.70
2021,01,13,14,18,13.00
2021,01,13,14,19,9.20
2021,01,13,14,20,7.20
2021,01,13,14,21,7.80
2021,01,13,14,22,9.10
2021,01,13,14,23,8.90
2021,01,13,14,24,6.30
2021,01,13,14,25,9.10
2021,01,13,14,26,6.40
2021,01,13,14,27,8.80
2021,01,13,14,28,8.70
2021,01,13,14,29,5.30
2021,01,13,14,30,10.90
2021,01,13,14,31,8.60
2021,01,13,14,32,4.70
2021,01,13,14,33,8.90
2021,01,13,14,34,14.00
2021,01,13,14,35,12.60
2021,01,13,14,36,7.00
2021,01,13,14,37,6.40
2021,01,13,14,38,3.30
2021,01,13,14,39,7.60
2021,01,13,14,40,6.70
2021,01,13,14,41,7.70
2021,01,13,14,42,7.60
2021,01,13,14,43,11.50
2021,01,13,14,44,11.50
2021,01,13,14,45,9.00
2021,01,13,14,46,7.60
2021,01,13,14,47,10.50
2021,01,13,14,48,15.10
2021,01,13,14,49,9.60
2021,01,13,14,50,6.40
2021,01,13,14,51,8.30
2021,01,13,14,52,7.70
2021,01,13,14,53,8.90
2021,01,13,14,54,7.50
2021,01,13,14,55,6.60
2021,01,13,14,56,4.90
2021,01,13,14,57,6.30
2021,01,13,14,58,8.80
2021,01,13,14,59,5.60
2021,01,13,15,00,6.40
2021,01,13,15,01,5.90
2021,01,13,15,02,4.60
2021,01,13,15,03,6.80
2021,01,13,15,04,9.80
2021,01,13,15,05,7.50
2021,01,13,15,06,11.00
2021,01,13,15,07,7.40
2021,01,13,15,08,5.40
2021,01,13,15,09,5.80
2021,01,13,15,10,3.80
2021,01,13,15,11,5.20
2021,01,13,15,12,4.90
2021,01,13,15,13,11.40
2021,01,13,15,14,6.80
2021,01,13,15,15,12.80
2021,01,13,15,16,9.10
2021,01,13,15,17,8.40
2021,01,13,15,18,7.00
2021,01,13,15,19,6.80
2021,01,13,15,20,10.10
2021,01,13,15,21,4.50
2021,01,13,15,22,5.90
2021,01,13,15,23,7.50
2021,01,13,15,24,7.20
2021,01,13,15,25,10.90
2021,01,13,15,26,7.80
2021,01,13,15,27,8.00
2021,01,13,15,28,8.80
2021,01,13,15,29,6.40
2021,01,13,15,30,6.70
2021,01,13,15,31,5.20
2021,01,13,15,32,6.30
2021,01,13,15,33,15.90
2021,01,13,15,34,7.50
2021,01,13,15,35,8.90
2021,01,13,15,36,7.10
2021,01,13,15,37,9.10
2021,01,13,15,38,10.20
2021,01,13,15,39,5.90
2021,01,13,15,40,11.30
2021,01,13,15,41,6.10
2021,01,13,15,42,6.70
2021,01,13,15,43,4.80
2021,01,13,15,44,6.30
2021,01,13,15,45,2.40
2021,01,13,15,46,1.80
2021,01,13,15,47,6.80
2021,01,13,15,48,9.10
2021,01,13,15,49,6.20
2021,01,13,15,50,4.80
2021,01,13,15,51,3.80
2021,01,13,15,52,4.50
2021,01,13,15,53,4.90
2021,01,13,15,54,8.20
2021,01,13,15,55,8.20
2021,01,13,15,56,7.00
2021,01,13,15,57,6.00
2021,01,13,15,58,6.20
2021,01,13,15,59,8.00
2021,01,13,16,00,3.90
2021,01,13,16,01,9.30
2021,01,13,16,02,11.30
2021,01,13,16,03,13.20
2021,01,13,16,04,10.80
2021,01,13,16,05,7.50
2021,01,13,16,06,10.40
2021,01,13,16,07,10.50
2021,01,13,16,08,10.80
2021,01,13,16,09,8.90
2021,01,13,16,10,9.30
2021,01,13,16,11,9.30
2021,01,13,16,12,10.50
2021,01,13,16,13,7.50
2021,01,13,16,14,6.80
2021,01,13,16,15,7.90
2021,01,13,16,16,6.90
2021,01,13,16,17,8.70
2021,01,13,16,18,8.70
2021,01,13,16,19,6.40
2021,01,13,16,20,9.10
2021,01,13,16,21,10.00
2021,01,13,16,22,9.70
2021,01,13,16,23,9.80
2021,01,13,16,24,9.10
2021,01,13,16,25,7.60
2021,01,13,16,26,5.70
2021,01,13,16,27,7.60
2021,01,13,16,28,9.90
2021,01,13,16,29,8.60
2021,01,13,16,30,11.50
2021,01,13,16,31,8.90
2021,01,13,16,32,4.90
2021,01,13,16,33,11.30
2021,01,13,16,34,8.10
2021,01,13,16,35,7.30
2021,01,13,16,36,7.50
2021,01,13,16,37,7.30
2021,01,13,16,38,1.30
2021,01,13,16,39,5.10
2021,01,13,16,40,6.70
2021,01,13,16,41,4.60
2021,01,13,16,42,5.70
2021,01,13,16,43,3.20
2021,01,13,16,44,1.40
2021,01,13,16,45,2.30
2021,01,13,16,46,3.70
2021,01,13,16,47,5.10
2021,01,13,16,48,2.40
2021,01,13,16,49,0.90
2021,01,13,16,50,1.00
2021,01,13,16,51,1.60
2021,01,13,16,52,4.60
2021,01,13,16,53,3.00
2021,01,13,16,54,2.60
2021,01,13,16,55,3.10
2021,01,13,16,56,4.40
2021,01,13,16,57,4.90
2021,01,13,16,58,2.40
2021,01,13,16,59,0.70
2021,01,13,17,00,4.00
2021,01,13,17,01,3.50
2021,01,13,17,02,3.40
2021,01,13,17,03,2.30
2021,01,13,17,04,1.70
2021,01,13,17,05,5.70
2021,01,13,17,06,2.60
2021,01,13,17,07,3.60
2021,01,13,17,08,2.90
2021,01,13,17,09,3.00
2021,01,13,17,10,4.70
2021,01,13,17,11,3.50
2021,01,13,17,12,2.50
2021,01,13,17,13,1.50
2021,01,13,17,14,4.10
2021,01,13,17,15,2.30
2021,01,13,17,16,2.00
2021,01,13,17,17,0.30
2021,01,13,17,18,2.20
2021,01,13,17,19,4.90
2021,01,13,17,20,3.50
2021,01,13,17,21,3.70
2021,01,13,17,22,4.80
2021,01,13,17,23,3.60
2021,01,13,17,24,4.10
2021,01,13,17,25,1.20
2021,01,13,17,26,0.00
2021,01,13,17,27,0.60
2021,01,13,17,28,0.20
2021,01,13,17,29,1.60
2021,01,13,17,30,1.60
2021,01,13,17,31,0.50
2021,01,13,17,32,0.70
2021,01,13,17,33,0.00
2021,01,13,17,34,3.20
2021,01,13,17,35,0.00
2021,01,13,17,36,2.00
2021,01,13,17,37,0.60
2021,01,13,17,38,0.50
2021,01,13,17,39,0.30
2021,01,13,17,40,1.50
2021,01,13,17,41,0.00